This demonstration page uses our WeatherBlox Daily Observations layout. Learn more.

Left ArrowRight Arrow

39.92423, -83.80882

Hourly Observations for August 31, 2019

Temp ( °F °C ) Dew Point ( °F °C ) Humidity (%) Winds ( mph kmh ) Pressure ( in mb ) Visibility ( mi km ) Precip ( " mm )
12:56 am 00:56 Clear 65 18.3 62 16.7 90 90 NE 5 7 30.18 1022 10 16 N/A
1:56 am 01:56 Clear 63 17.2 62 16.7 97 97 NNE 7 11 30.18 1022 10 16 N/A
2:56 am 02:56 Mostly Cloudy 65 18.3 61 16.1 87 87 NNE 6 9 30.19 1022 10 16 N/A
3:56 am 03:56 Cloudy 65 18.3 60 15.6 84 84 NE 8 13 30.19 1023 10 16 N/A
4:56 am 04:56 Cloudy 65 18.3 59 15 81 81 ENE 7 11 30.20 1023 10 16 N/A
5:56 am 05:56 Cloudy 65 18.3 58 14.4 78 78 NE 9 15 30.21 1023 10 16 N/A
6:56 am 06:56 Partly Cloudy 63 17.2 58 14.4 84 84 NE 8 13 30.22 1023 10 16 N/A
7:56 am 07:56 Mostly Sunny 64 17.8 59 15 84 84 ENE 9 15 30.23 1024 10 16 N/A
8:56 am 08:56 Cloudy 66 18.9 60 15.6 81 81 ENE 10 17 30.24 1024 10 16 N/A
9:56 am 09:56 Mostly Cloudy 67 19.4 60 15.6 79 79 ENE 12 19 30.25 1024 10 16 N/A
10:56 am 10:56 Partly Cloudy 69 20.6 61 16.1 76 76 E 10 17 30.26 1025 10 16 N/A
11:56 am 11:56 Sunny 71 21.7 61 16.1 71 71 E 13 20 30.26 1025 10 16 N/A
12:56 pm 12:56 Partly Cloudy 71 21.7 61 16.1 71 71 E 10 17 30.25 1024 10 16 N/A
1:56 pm 13:56 Mostly Cloudy 72 22.2 62 16.7 71 71 VRB 5 7 30.28 1025 10 16 N/A
2:56 pm 14:56 Mostly Cloudy with Light Rain 71 21.7 65 18.3 81 81 ENE 14 22 30.23 1024 10 16 0.00 0.00
3:56 pm 15:56 Sunny 73 22.8 64 17.8 74 74 ESE 12 19 30.22 1024 10 16 0.00 0.00
4:56 pm 16:56 Sunny 71 21.7 64 17.8 79 79 ESE 8 13 30.22 1023 10 16 N/A
5:56 pm 17:56 Mostly Sunny 71 21.7 64 17.8 79 79 ENE 8 13 30.21 1023 10 16 N/A
6:56 pm 18:56 Sunny 70 21.1 65 18.3 84 84 ENE 9 15 30.20 1023 10 16 N/A
7:56 pm 19:56 Sunny 68 20 63 17.2 84 84 E 5 7 30.21 1023 10 16 N/A
8:56 pm 20:56 Clear 66 18.9 62 16.7 87 87 ENE 6 9 30.20 1023 10 16 N/A
9:56 pm 21:56 Clear 65 18.3 61 16.1 87 87 ENE 6 9 30.21 1023 10 16 N/A
10:56 pm 22:56 Clear 63 17.2 60 15.6 90 90 ENE 8 13 30.20 1023 10 16 N/A
11:56 pm 23:56 Mostly Clear 62 16.7 59 15 90 90 ENE 6 9 30.20 1023 10 16 N/A

Powered by AerisWeather